Time,TemperatureF,DewpointF,PressureIn,WindDirection,WindDirectionDegrees,WindSpeedMPH,WindSpeedGustMPH,Humidity,HourlyPrecipIn,Conditions,Clouds,dailyrainin,SoftwareType,DateUTC
2013-05-04 00:02:00,36.0,35.0,29.94,West,262,2.0,5.0,95,0.00,,,0.28,,2013-05-04 05:02:00,
2013-05-04 00:12:00,36.0,35.0,29.93,WSW,255,1.0,4.0,95,0.00,,,0.28,,2013-05-04 05:12:00,
2013-05-04 00:22:00,36.0,35.0,29.93,WSW,255,1.0,4.0,95,0.00,,,0.28,,2013-05-04 05:22:00,
2013-05-04 00:32:00,37.0,36.0,29.93,WNW,300,1.0,5.0,95,0.01,,,0.26,,2013-05-04 05:32:00,
2013-05-04 00:42:00,37.0,36.0,29.93,WNW,300,1.0,5.0,95,0.01,,,0.26,,2013-05-04 05:42:00,
2013-05-04 00:52:00,36.0,35.0,29.92,NW,305,0.0,4.0,95,0.01,,,0.26,,2013-05-04 05:52:00,
2013-05-04 01:01:00,36.0,35.0,29.92,West,259,2.0,4.0,95,0.01,,,0.26,,2013-05-04 06:01:00,
2013-05-04 01:11:00,36.0,35.0,29.92,West,259,2.0,4.0,95,0.01,,,0.26,,2013-05-04 06:11:00,
2013-05-04 01:21:00,36.0,35.0,29.92,WSW,251,0.0,3.0,95,0.01,,,0.26,,2013-05-04 06:21:00,
2013-05-04 01:32:00,36.0,35.0,29.92,SSW,208,1.0,3.0,95,0.00,,,0.25,,2013-05-04 06:32:00,
2013-05-04 01:42:00,36.0,35.0,29.92,SSW,208,1.0,3.0,95,0.00,,,0.25,,2013-05-04 06:42:00,
2013-05-04 01:52:00,36.0,35.0,29.92,WSW,243,1.0,4.0,95,0.00,,,0.25,,2013-05-04 06:52:00,
2013-05-04 02:01:00,36.0,35.0,29.91,WSW,250,0.0,3.0,95,0.00,,,0.25,,2013-05-04 07:01:00,
2013-05-04 02:11:00,36.0,35.0,29.91,WSW,250,0.0,3.0,95,0.00,,,0.25,,2013-05-04 07:11:00,
2013-05-04 02:21:00,36.0,35.0,29.91,West,261,1.0,4.0,95,0.00,,,0.25,,2013-05-04 07:21:00,
2013-05-04 02:32:00,36.0,35.0,29.90,SW,224,0.0,2.0,95,0.00,,,0.24,,2013-05-04 07:32:00,
2013-05-04 02:42:00,36.0,35.0,29.90,SW,224,0.0,2.0,95,0.00,,,0.24,,2013-05-04 07:42:00,
2013-05-04 02:52:00,36.0,35.0,29.90,SW,236,3.0,6.0,95,0.00,,,0.24,,2013-05-04 07:52:00,
2013-05-04 03:01:00,36.0,35.0,29.90,WNW,297,0.0,6.0,95,0.00,,,0.24,,2013-05-04 08:01:00,
2013-05-04 03:11:00,36.0,35.0,29.90,WNW,297,0.0,6.0,95,0.00,,,0.24,,2013-05-04 08:11:00,
2013-05-04 03:21:00,36.0,35.0,29.89,West,273,0.0,4.0,95,0.00,,,0.24,,2013-05-04 08:21:00,
2013-05-04 03:31:00,36.0,35.0,29.89,SSE,158,1.0,3.0,95,0.00,,,0.23,,2013-05-04 08:31:00,
2013-05-04 03:42:00,36.0,35.0,29.89,SSE,158,1.0,3.0,95,0.00,,,0.23,,2013-05-04 08:42:00,
2013-05-04 03:52:00,36.0,35.0,29.89,SW,229,1.0,4.0,95,0.00,,,0.23,,2013-05-04 08:52:00,
2013-05-04 04:02:00,36.0,35.0,29.89,WNW,297,2.0,4.0,95,0.00,,,0.23,,2013-05-04 09:02:00,
2013-05-04 04:11:00,36.0,35.0,29.89,WNW,297,2.0,4.0,95,0.00,,,0.23,,2013-05-04 09:11:00,
2013-05-04 04:21:00,36.0,35.0,29.89,West,261,0.0,2.0,95,0.00,,,0.23,,2013-05-04 09:21:00,
2013-05-04 04:32:00,36.0,35.0,29.89,WSW,245,1.0,5.0,95,0.00,,,0.23,,2013-05-04 09:32:00,
2013-05-04 04:42:00,36.0,35.0,29.89,WSW,245,1.0,5.0,95,0.00,,,0.23,,2013-05-04 09:42:00,
2013-05-04 04:52:00,36.0,35.0,29.88,SW,236,1.0,4.0,95,0.00,,,0.23,,2013-05-04 09:52:00,
2013-05-04 05:02:00,36.0,35.0,29.89,West,264,1.0,3.0,95,0.00,,,0.23,,2013-05-04 10:02:00,
2013-05-04 05:12:00,36.0,35.0,29.89,West,264,1.0,3.0,95,0.00,,,0.23,,2013-05-04 10:12:00,
2013-05-04 05:22:00,36.0,35.0,29.88,WSW,253,1.0,3.0,96,0.00,,,0.23,,2013-05-04 10:22:00,
2013-05-04 05:33:00,36.0,35.0,29.89,WSW,257,3.0,5.0,96,0.00,,,0.22,,2013-05-04 10:33:00,
2013-05-04 05:42:00,36.0,35.0,29.89,WSW,257,3.0,5.0,96,0.00,,,0.22,,2013-05-04 10:42:00,
2013-05-04 05:52:00,36.0,35.0,29.89,WSW,250,0.0,3.0,96,0.00,,,0.22,,2013-05-04 10:52:00,
2013-05-04 06:02:00,36.0,35.0,29.88,WSW,252,0.0,2.0,96,0.00,,,0.22,,2013-05-04 11:02:00,
2013-05-04 06:11:00,36.0,35.0,29.88,WSW,252,0.0,2.0,96,0.00,,,0.22,,2013-05-04 11:11:00,
2013-05-04 06:21:00,36.0,35.0,29.88,SW,222,2.0,4.0,96,0.01,,,0.23,,2013-05-04 11:21:00,
2013-05-04 06:32:00,36.0,35.0,29.89,SSE,153,1.0,2.0,96,0.01,,,0.22,,2013-05-04 11:32:00,
2013-05-04 06:43:00,36.0,35.0,29.89,SSE,153,1.0,2.0,96,0.01,,,0.22,,2013-05-04 11:43:00,
2013-05-04 06:55:00,36.0,35.0,29.89,SW,215,0.0,2.0,96,0.01,,,0.22,,2013-05-04 11:55:00,
2013-05-04 07:05:00,36.0,35.0,29.89,SSW,201,1.0,4.0,96,0.01,,,0.22,,2013-05-04 12:05:00,
2013-05-04 07:36:00,36.0,35.0,29.89,SSW,199,1.0,4.0,96,0.00,,,0.21,,2013-05-04 12:36:00,
2013-05-04 07:42:00,36.0,35.0,29.89,SSW,199,1.0,4.0,96,0.00,,,0.21,,2013-05-04 12:42:00,
2013-05-04 07:51:00,36.0,35.0,29.89,SSW,200,1.0,3.0,96,0.00,,,0.21,,2013-05-04 12:51:00,
2013-05-04 08:01:00,37.0,36.0,29.89,ESE,120,1.0,4.0,96,0.00,,,0.21,,2013-05-04 13:01:00,
2013-05-04 08:11:00,37.0,36.0,29.89,ESE,120,1.0,4.0,96,0.00,,,0.21,,2013-05-04 13:11:00,
2013-05-04 08:21:00,37.0,36.0,29.89,SE,144,2.0,4.0,95,0.00,,,0.21,,2013-05-04 13:21:00,
2013-05-04 08:32:00,38.0,37.0,29.89,SSE,148,0.0,2.0,95,0.00,,,0.21,,2013-05-04 13:32:00,
2013-05-04 08:42:00,38.0,37.0,29.89,SSE,148,0.0,2.0,95,0.00,,,0.21,,2013-05-04 13:42:00,
2013-05-04 08:52:00,38.0,36.0,29.89,SSE,158,3.0,4.0,94,0.00,,,0.21,,2013-05-04 13:52:00,
2013-05-04 09:02:00,38.0,36.0,29.89,SSW,197,2.0,4.0,94,0.00,,,0.21,,2013-05-04 14:02:00,
2013-05-04 09:11:00,38.0,36.0,29.89,SSW,197,2.0,4.0,94,0.00,,,0.21,,2013-05-04 14:11:00,
2013-05-04 09:21:00,39.0,37.0,29.89,SW,222,3.0,5.0,92,0.00,,,0.21,,2013-05-04 14:21:00,
2013-05-04 09:32:00,39.0,37.0,29.90,SSE,160,1.0,6.0,91,0.00,,,0.19,,2013-05-04 14:32:00,
2013-05-04 09:42:00,39.0,37.0,29.90,SSE,160,1.0,6.0,91,0.00,,,0.19,,2013-05-04 14:42:00,
2013-05-04 09:51:00,39.0,37.0,29.90,WSW,243,1.0,5.0,91,0.00,,,0.19,,2013-05-04 14:51:00,
2013-05-04 10:02:00,40.0,37.0,29.90,SE,130,1.0,4.0,90,0.00,,,0.19,,2013-05-04 15:02:00,
2013-05-04 10:12:00,40.0,37.0,29.90,SE,130,1.0,4.0,90,0.00,,,0.19,,2013-05-04 15:12:00,
2013-05-04 10:22:00,39.0,37.0,29.90,SSW,205,0.0,3.0,91,0.01,,,0.20,,2013-05-04 15:22:00,
2013-05-04 10:33:00,40.0,37.0,29.90,SSW,208,1.0,5.0,89,0.01,,,0.18,,2013-05-04 15:33:00,
2013-05-04 10:43:00,40.0,37.0,29.90,SSW,208,1.0,5.0,89,0.01,,,0.18,,2013-05-04 15:43:00,
2013-05-04 10:52:00,40.0,37.0,29.90,SSE,149,1.0,4.0,90,0.02,,,0.19,,2013-05-04 15:52:00,
2013-05-04 11:03:00,41.0,38.0,29.90,SSE,156,2.0,5.0,88,0.02,,,0.19,,2013-05-04 16:03:00,
2013-05-04 11:12:00,41.0,38.0,29.90,SSE,156,2.0,5.0,88,0.02,,,0.19,,2013-05-04 16:12:00,
2013-05-04 11:22:00,42.0,38.0,29.89,East,95,0.0,5.0,86,0.01,,,0.19,,2013-05-04 16:22:00,
2013-05-04 11:33:00,44.0,39.0,29.90,SSE,166,1.0,3.0,81,0.01,,,0.18,,2013-05-04 16:33:00,
2013-05-04 11:42:00,44.0,39.0,29.90,SSE,166,1.0,3.0,81,0.01,,,0.18,,2013-05-04 16:42:00,
2013-05-04 11:52:00,43.0,37.0,29.90,SSE,153,0.0,4.0,79,0.00,,,0.18,,2013-05-04 16:52:00,
2013-05-04 12:02:00,44.0,37.0,29.89,ESE,118,1.0,3.0,76,0.00,,,0.18,,2013-05-04 17:02:00,
2013-05-04 12:12:00,44.0,37.0,29.89,ESE,118,1.0,3.0,76,0.00,,,0.18,,2013-05-04 17:12:00,
2013-05-04 12:22:00,44.0,38.0,29.89,SSW,201,1.0,7.0,79,0.00,,,0.18,,2013-05-04 17:22:00,
2013-05-04 12:32:00,44.0,37.0,29.89,SE,136,2.0,5.0,77,0.00,,,0.16,,2013-05-04 17:32:00,
2013-05-04 12:42:00,44.0,37.0,29.89,SE,136,2.0,5.0,77,0.00,,,0.16,,2013-05-04 17:42:00,
2013-05-04 12:52:00,46.0,38.0,29.89,SSW,207,0.0,4.0,73,0.00,,,0.16,,2013-05-04 17:52:00,
2013-05-04 13:01:00,46.0,38.0,29.89,NE,44,1.0,4.0,74,0.00,,,0.16,,2013-05-04 18:01:00,
2013-05-04 13:12:00,46.0,38.0,29.89,NE,44,1.0,4.0,74,0.00,,,0.16,,2013-05-04 18:12:00,
2013-05-04 13:21:00,46.0,39.0,29.89,WNW,289,1.0,3.0,75,0.00,,,0.16,,2013-05-04 18:21:00,
2013-05-04 13:32:00,47.0,38.0,29.89,WSW,248,0.0,3.0,71,0.00,,,0.15,,2013-05-04 18:32:00,
2013-05-04 13:42:00,47.0,38.0,29.89,WSW,248,0.0,3.0,71,0.00,,,0.15,,2013-05-04 18:42:00,
2013-05-04 13:52:00,47.0,37.0,29.89,West,278,1.0,3.0,69,0.00,,,0.15,,2013-05-04 18:52:00,
2013-05-04 14:01:00,46.0,38.0,29.89,WSW,240,2.0,4.0,73,0.00,,,0.15,,2013-05-04 19:01:00,
2013-05-04 14:11:00,46.0,38.0,29.89,WSW,240,2.0,4.0,73,0.00,,,0.15,,2013-05-04 19:11:00,
2013-05-04 14:21:00,44.0,38.0,29.89,WSW,249,3.0,7.0,78,0.02,,,0.17,,2013-05-04 19:21:00,
2013-05-04 14:32:00,43.0,39.0,29.90,NE,36,0.0,1.0,85,0.07,,,0.22,,2013-05-04 19:32:00,
2013-05-04 14:42:00,43.0,39.0,29.90,NE,36,0.0,1.0,85,0.07,,,0.22,,2013-05-04 19:42:00,
2013-05-04 14:52:00,45.0,40.0,29.90,SSE,159,0.0,1.0,84,0.07,,,0.22,,2013-05-04 19:52:00,
2013-05-04 15:02:00,46.0,40.0,29.90,North,4,2.0,4.0,79,0.07,,,0.22,,2013-05-04 20:02:00,
2013-05-04 15:11:00,46.0,40.0,29.90,North,4,2.0,4.0,79,0.07,,,0.22,,2013-05-04 20:11:00,
2013-05-04 15:22:00,48.0,41.0,29.89,East,98,1.0,3.0,78,0.05,,,0.22,,2013-05-04 20:22:00,
2013-05-04 15:32:00,49.0,40.0,29.90,NNE,23,1.0,3.0,72,0.00,,,0.20,,2013-05-04 20:32:00,
2013-05-04 15:42:00,49.0,40.0,29.90,NNE,23,1.0,3.0,72,0.00,,,0.20,,2013-05-04 20:42:00,
2013-05-04 15:51:00,49.0,40.0,29.90,ESE,106,0.0,3.0,72,0.00,,,0.20,,2013-05-04 20:51:00,
2013-05-04 16:02:00,49.0,40.0,29.90,ESE,115,1.0,4.0,72,0.00,,,0.20,,2013-05-04 21:02:00,
2013-05-04 16:12:00,49.0,40.0,29.90,ESE,115,1.0,4.0,72,0.00,,,0.20,,2013-05-04 21:12:00,
2013-05-04 16:22:00,48.0,39.0,29.90,NNW,331,0.0,2.0,71,0.00,,,0.20,,2013-05-04 21:22:00,
2013-05-04 16:33:00,48.0,39.0,29.90,NW,304,0.0,1.0,70,0.00,,,0.17,,2013-05-04 21:33:00,
2013-05-04 16:43:00,48.0,39.0,29.90,NW,304,0.0,1.0,70,0.00,,,0.17,,2013-05-04 21:43:00,
2013-05-04 16:52:00,47.0,38.0,29.90,WNW,295,0.0,2.0,71,0.00,,,0.17,,2013-05-04 21:52:00,
2013-05-04 17:03:00,48.0,40.0,29.90,WNW,302,0.0,2.0,74,0.00,,,0.17,,2013-05-04 22:03:00,
2013-05-04 17:12:00,48.0,40.0,29.90,WNW,302,0.0,2.0,74,0.00,,,0.17,,2013-05-04 22:12:00,
2013-05-04 17:22:00,48.0,39.0,29.91,West,281,0.0,3.0,72,0.00,,,0.17,,2013-05-04 22:22:00,
2013-05-04 17:33:00,48.0,39.0,29.91,NW,311,2.0,5.0,70,0.00,,,0.15,,2013-05-04 22:33:00,
2013-05-04 17:42:00,48.0,39.0,29.91,NW,311,2.0,5.0,70,0.00,,,0.15,,2013-05-04 22:42:00,
2013-05-04 17:52:00,48.0,38.0,29.91,North,350,2.0,4.0,68,0.00,,,0.15,,2013-05-04 22:52:00,
2013-05-04 18:02:00,49.0,39.0,29.91,North,349,2.0,4.0,69,0.00,,,0.15,,2013-05-04 23:02:00,
2013-05-04 18:12:00,49.0,39.0,29.91,North,349,2.0,4.0,69,0.00,,,0.15,,2013-05-04 23:12:00,
2013-05-04 18:22:00,48.0,39.0,29.92,NNW,330,2.0,7.0,72,0.00,,,0.15,,2013-05-04 23:22:00,
2013-05-04 18:32:00,47.0,41.0,29.92,NNE,20,2.0,10.0,78,0.00,,,0.12,,2013-05-04 23:32:00,
2013-05-04 18:42:00,47.0,41.0,29.92,NNE,20,2.0,10.0,78,0.00,,,0.12,,2013-05-04 23:42:00,
2013-05-04 18:52:00,46.0,41.0,29.92,NNE,30,1.0,6.0,81,0.00,,,0.12,,2013-05-04 23:52:00,
2013-05-04 19:02:00,46.0,41.0,29.92,NNE,28,2.0,7.0,81,0.00,,,0.12,,2013-05-05 00:02:00,
2013-05-04 19:11:00,46.0,41.0,29.92,NNE,28,2.0,7.0,81,0.00,,,0.12,,2013-05-05 00:11:00,
2013-05-04 19:21:00,47.0,40.0,29.92,North,353,1.0,4.0,77,0.00,,,0.12,,2013-05-05 00:21:00,
2013-05-04 19:32:00,47.0,39.0,29.92,NW,321,0.0,6.0,75,0.00,,,0.11,,2013-05-05 00:32:00,
2013-05-04 19:42:00,47.0,39.0,29.92,NW,321,0.0,6.0,75,0.00,,,0.11,,2013-05-05 00:42:00,
2013-05-04 19:51:00,47.0,39.0,29.93,NNE,13,0.0,2.0,75,0.00,,,0.11,,2013-05-05 00:51:00,
2013-05-04 20:01:00,46.0,39.0,29.93,North,1,0.0,4.0,76,0.00,,,0.11,,2013-05-05 01:01:00,
2013-05-04 20:11:00,46.0,39.0,29.93,North,1,0.0,4.0,76,0.00,,,0.11,,2013-05-05 01:11:00,
2013-05-04 20:21:00,46.0,40.0,29.94,North,354,0.0,5.0,78,0.00,,,0.11,,2013-05-05 01:21:00,
2013-05-04 20:32:00,46.0,40.0,29.95,WNW,291,0.0,3.0,79,0.00,,,0.11,,2013-05-05 01:32:00,
2013-05-04 20:42:00,46.0,40.0,29.95,WNW,291,0.0,3.0,79,0.00,,,0.11,,2013-05-05 01:42:00,
2013-05-04 20:52:00,45.0,39.0,29.95,South,169,0.0,3.0,79,0.00,,,0.11,,2013-05-05 01:52:00,
2013-05-04 21:02:00,45.0,39.0,29.96,NE,36,0.0,4.0,79,0.00,,,0.11,,2013-05-05 02:02:00,
2013-05-04 21:11:00,45.0,39.0,29.96,NE,36,0.0,4.0,79,0.00,,,0.11,,2013-05-05 02:11:00,
2013-05-04 21:22:00,45.0,40.0,29.96,North,356,0.0,6.0,81,0.00,,,0.11,,2013-05-05 02:22:00,
2013-05-04 21:31:00,44.0,40.0,29.96,NNE,29,0.0,1.0,85,0.00,,,0.11,,2013-05-05 02:31:00,
2013-05-04 21:42:00,44.0,40.0,29.96,NNE,29,0.0,1.0,85,0.00,,,0.11,,2013-05-05 02:42:00,
2013-05-04 21:52:00,43.0,39.0,29.97,NE,49,0.0,2.0,86,0.00,,,0.11,,2013-05-05 02:52:00,
2013-05-04 22:01:00,43.0,39.0,29.98,NE,43,0.0,1.0,87,0.00,,,0.11,,2013-05-05 03:01:00,
2013-05-04 22:11:00,43.0,39.0,29.98,NE,43,0.0,1.0,87,0.00,,,0.11,,2013-05-05 03:11:00,
2013-05-04 22:21:00,43.0,39.0,29.98,NNW,345,0.0,3.0,87,0.00,,,0.11,,2013-05-05 03:21:00,
2013-05-04 22:33:00,43.0,39.0,29.98,NE,53,1.0,3.0,87,0.00,,,0.11,,2013-05-05 03:33:00,
2013-05-04 22:42:00,43.0,39.0,29.98,NE,53,1.0,3.0,87,0.00,,,0.11,,2013-05-05 03:42:00,
2013-05-04 22:53:00,43.0,40.0,29.98,ENE,68,0.0,1.0,89,0.00,,,0.11,,2013-05-05 03:53:00,
2013-05-04 23:02:00,43.0,40.0,29.98,WNW,293,0.0,1.0,89,0.00,,,0.11,,2013-05-05 04:02:00,
2013-05-04 23:12:00,43.0,40.0,29.98,WNW,293,0.0,1.0,89,0.00,,,0.11,,2013-05-05 04:12:00,
2013-05-04 23:22:00,42.0,39.0,29.98,NW,307,0.0,4.0,89,0.00,,,0.11,,2013-05-05 04:22:00,
2013-05-04 23:32:00,43.0,40.0,29.98,NE,49,0.0,3.0,89,0.00,,,0.11,,2013-05-05 04:32:00,
2013-05-04 23:43:00,43.0,40.0,29.98,NE,49,0.0,3.0,89,0.00,,,0.11,,2013-05-05 04:43:00,
2013-05-04 23:52:00,43.0,40.0,29.98,NE,49,0.0,2.0,88,0.00,,,0.11,,2013-05-05 04:52:00,